Find Starlink 36248

NORAD ID: 68979 Int'l Des: 2026-099 Owner: SPXS Country: US Constellation: starlink operational
LEOCIRCULAR

Live Position

Loading 3D Globe...

About Starlink 36248

Description loading...

Upcoming Passes

Passes for default location (London). Set your location on the main map for personalized predictions.

Altitude History

Loading altitude history...

Two-Line Element Set

1 68979C 26099AE 26125.80881944 -.01433900 00000+0 -20931-2 0 1252
2 68979 53.1614 7.3407 0000302 106.6735 351.5544 16.05148251 16
Epoch: May 5, 2026 • Age: 30 hours

Current Status

Altitude 264.5 km
Velocity 7.75 km/s
Sub-Earth Point 25.40°N, 151.01°W
Launch Date May 1, 2026
Age 4 days
Type internet

Technical Details

Classification Payload
Mass 575.00 kg
Dry Mass 530.00 kg
Total Mass 575.00 kg
Length 0.30 m
Diameter 4.10 m
Span 29.00 m
Shape Box + pan
Manufacturer SPXS
Bus Type Starlink V2MO
Phase Status In Orbit
Owner/State SPXS/US

Most Searched